This is the latest recevied weather packets stored in our database for station/object N0HOT. If no packets are shown the sender has not sent any weather packets the latest 10 day(s).
| Time | Temp. | Humidity | Pressure | Rain* | Wind** | Luminosity | Snow |
|---|---|---|---|---|---|---|---|
| 1777988500 | 8.89° C | 40% | 1011.5 hPa | 0 mm | - | 161 W/m² | - |
| 1777988197 | 8.33° C | 40% | 1011.8 hPa | 0 mm | - | 217 W/m² | - |
| 1777987893 | 8.33° C | 42% | 1011.5 hPa | 0 mm | - | 263 W/m² | - |
| 1777987589 | 7.78° C | 41% | 1011.5 hPa | 0 mm | - | 87 W/m² | - |
| 1777987287 | 7.78° C | 44% | 1011.8 hPa | 0 mm | - | 235 W/m² | - |
| 1777986984 | 7.22° C | 45% | 1011.8 hPa | 0 mm | - | 81 W/m² | - |
| 1777986682 | 6.67° C | 45% | 1011.8 hPa | 0 mm | - | 103 W/m² | - |
| 1777986380 | 6.67° C | 45% | 1011.5 hPa | 0 mm | - | 39 W/m² | - |
| 1777986078 | 6.11° C | 47% | 1011.8 hPa | 0 mm | - | 115 W/m² | - |
| 1777985774 | 6.11° C | 49% | 1011.5 hPa | 0 mm | - | 60 W/m² | - |
| 1777985471 | 5.56° C | 49% | 1011.5 hPa | 0 mm | - | 35 W/m² | - |
| 1777985167 | 5.56° C | 50% | 1011.5 hPa | 0 mm | - | 40 W/m² | - |
| 1777984864 | 5° C | 52% | 1011.5 hPa | 0 mm | - | 39 W/m² | - |
| 1777984560 | 5° C | 52% | 1011.1 hPa | 0 mm | - | 39 W/m² | - |
| 1777984256 | 5° C | 51% | 1011.1 hPa | 0 mm | - | 39 W/m² | - |
| 1777983953 | 4.44° C | 52% | 1011.1 hPa | 0 mm | - | 33 W/m² | - |
| 1777983650 | 4.44° C | 52% | 1011.1 hPa | 0 mm | - | 31 W/m² | - |
| 1777983347 | 4.44° C | 52% | 1011.1 hPa | 0 mm | - | 31 W/m² | - |
| 1777983044 | 4.44° C | 53% | 1010.8 hPa | 0 mm | - | 34 W/m² | - |
| 1777982740 | 3.89° C | 53% | 1010.8 hPa | 0 mm | - | 26 W/m² | - |
| 1777982436 | 3.89° C | 54% | 1010.8 hPa | 0 mm | - | 23 W/m² | - |
| 1777982130 | 3.89° C | 57% | 1010.8 hPa | 0 mm | - | 22 W/m² | - |
| 1777981828 | 3.89° C | 58% | 1010.5 hPa | 0 mm | - | 20 W/m² | - |
| 1777981525 | 3.89° C | 58% | 1010.5 hPa | 0 mm | - | 22 W/m² | - |
| 1777981221 | 3.33° C | 57% | 1010.1 hPa | 0 mm | - | 20 W/m² | - |
* Rain latest hour (hover to see other rain measurements)
** Current wind speed in m/s (hover to see current wind gust speed)